www.pogodaiklimat.ru

Погода и климат >> Архив погоды >> Норвегия >> Torungen Fyr


ПОГОДА в Torungen Fyr

  • Прогноз погоды в Torungen Fyr
  • Монитор погоды в Torungen Fyr
  • Климат города

АРХИВ ПОГОДЫ в Torungen Fyr

Время (UTC), дата Ветер
(напр.,м/с)
 
Видим.   Явления Облачность Т
(С)
Тd
(С)
f
(%)
Тe
(С)
Тes
(С)
Комфортность P
(гПа)
Po
(гПа)
Тmin
(С)
Tmax
(С)
R
(мм)
R24
(мм)
S
(см)
07 11.08 СЗ 2-2
{3}
н/о н/о +13.4 +13 +13 1013.7 1012.3
08 11.08 С 2-3
{4}
н/о н/о +15.1 +12.6 85 +15 +15 1013.5 1012.1
09 11.08 ЮВ 2-3
{3}
н/о н/о +15.6 +15.4 99 +15 +15 1013.3 1011.9
10 11.08 В 2-3
{3}
н/о н/о +16.5 +15.5 94 +17 +17 1013.2 1011.7
11 11.08 В 2-4
{4}
н/о н/о +16.9 +14.6 86 +17 +17 1012.7 1011.3
12 11.08 ЮВ 3-3
{4}
н/о н/о +17.3 +12.8 75 +17 +17 1012.4 1011.0 0.3
13 11.08 Ю 3-4
{4}
н/о н/о +16.6 +12.0 74 +16 +16 1012.2 1010.8
14 11.08 ЮЗ 4-5
{5}
н/о н/о +16.6 +15.6 94 +16 +16 1011.9 1010.5
15 11.08 Ю 3-4
{5}
н/о н/о +16.8 +16.2 96 +17 +17 1011.5 1010.0
16 11.08 ЮЗ 4-5
{5}
н/о н/о +17.3 +17 +17 1011.1 1009.7
17 11.08 Ю 4-6
{6}
н/о н/о +17.5 +17 +17 1010.8 1009.3
18 11.08 ЮЗ 4-4
{6}
н/о н/о +18.2 +12.8 71 +18 +18 1010.4 1008.9 +12.9 +18.3 0.3
19 11.08 Ю 4-4
{4}
н/о н/о +17.6 +17 +17 1010.3 1008.9
20 11.08 З 6-8
{8}
н/о н/о +17.1 +8.8 58 +16 +16 1010.5 1009.1
21 11.08 СЗ 8-9
{11}
н/о н/о +16.4 +8.4 59 +15 +15 1010.6 1009.1
22 11.08 СЗ 8-10
{11}
н/о н/о +15.6 +9.3 66 +14 +14 1010.5 1009.0
23 11.08 СЗ 8-10
{11}
н/о н/о +15.1 +11.3 78 +13 +13 1010.5 1009.1
00 12.08 СЗ 7-10
{11}
н/о н/о +14.6 +9.0 69 +13 +13 1010.5 1009.1
01 12.08 СЗ 8-10
{11}
н/о н/о +14.6 +13 +13 1010.5 1009.1
02 12.08 СЗ 7-9
{10}
н/о н/о +13.9 +12 +12 1010.6 1009.2
03 12.08 СЗ 7-8
{10}
н/о н/о +13.3 +9.9 80 +11 +11 1010.4 1009.0
04 12.08 СЗ 7 н/о н/о +13.1 1010.5 1009.0
05 12.08 СЗ 7-9
{9}
н/о н/о +13.2 +11 +11 1010.5 1009.1
06 12.08 СЗ 7-9
{11}
н/о н/о +13.5 +9.4 76 +11 +11 1010.7 1009.2 +12.8 +18.2 0.2
07 12.08 СЗ 6-9
{10}
н/о н/о +15.1 +8.1 63 +14 +14 1010.7 1009.2
08 12.08 СЗ 6-8
{9}
н/о н/о +16.7 +7.1 53 +16 +16 1010.5 1009.1
09 12.08 С 2-3
{8}
н/о н/о +17.7 +5.6 45 +18 +18 1010.5 1009.1
10 12.08 Ю 4-5
{5}
н/о н/о +17.7 +6.3 47 +17 +17 1010.7 1009.2
11 12.08 Ю 7-8
{8}
н/о н/о +17.9 +9.0 56 +17 +17 1010.5 1009.1
12 12.08 ЮЗ 9-11
{12}
н/о н/о +17.2 +16 +16 1010.5 1009.1
13 12.08 ЮЗ 11-12
{12}
н/о н/о +17.1 +16 +16 1010.5 1009.0
14 12.08 ЮЗ 11-13
{13}
н/о н/о +16.8 +15 +15 1010.4 1009.0
15 12.08 ЮЗ 12-13
{14}
н/о н/о +16.7 +15 +15 1010.2 1008.8
16 12.08 ЮЗ 9-11
{13}
н/о н/о +17.1 +16 +16 1010.2 1008.8
17 12.08 ЮЗ 9-10
{10}
н/о н/о +16.9 +16 +16 1010.2 1008.8
18 12.08 ЮЗ 6-7
{14}
н/о н/о +16.7 +16 +16 1010.0 1008.6 +13.4 +18.8
19 12.08 Ю 3-3
{6}
н/о н/о +16.7 +17 +17 1010.3 1008.9
20 12.08 Ю 4-4
{5}
н/о н/о +16.4 +16 +16 1010.5 1009.1
21 12.08 Ю 4-5
{5}
н/о н/о +16.2 +16 +16 1010.5 1009.1
22 12.08 Ю 3-4
{5}
н/о н/о +15.8 +16 +16 1010.7 1009.3
23 12.08 СЗ 2-2
{4}
н/о н/о +14.8 +15 +15 1010.8 1009.3
00 13.08 С 2-2
{6}
н/о н/о +13.6 +14 +14 1010.8 1009.3
01 13.08 С 2-3
{3}
н/о н/о +12.4 +12 +12 1010.7 1009.2
02 13.08 СЗ 3-3
{4}
н/о н/о +12.1 +11 +11 1010.7 1009.2
03 13.08 С 6-6
{6}
н/о н/о +11.6 +10 +10 1010.7 1009.2
04 13.08 С 5-6
{6}
н/о н/о +11.8 +10 +10 1010.6 1009.2
05 13.08 С 5-6
{6}
н/о н/о +12.4 +11 +11 1010.6 1009.1
06 13.08 С 5-6
{6}
н/о н/о +13.4 +12 +12 1010.6 1009.2 +11.2 +17.0 0.4
07 13.08 СВ 5-6
{6}
н/о н/о +15.0 +14 +14 1010.9 1009.5
08 13.08 В 4-6
{8}
н/о н/о +16.5 +14.5 88 +16 +16 1011.0 1009.6
09 13.08 В 5-6
{7}
н/о н/о +16.9 +16.9 100 +16 +16 1011.0 1009.6
10 13.08 В 5-6
{7}
н/о н/о +16.8 +16.2 96 +16 +16 1011.2 1009.7
11 13.08 В 5-6
{6}
н/о н/о +17.0 +15.7 92 +16 +16 1010.9 1009.5
12 13.08 В 4-5
{8}
н/о н/о +17.4 +17 +17 1010.8 1009.4
13 13.08 В 4-5
{6}
н/о н/о +17.4 +17 +17 1010.5 1009.1
14 13.08 В 5-6
{6}
н/о н/о +17.4 +13.1 76 +17 +17 1010.1 1008.6
15 13.08 СВ 5-6
{6}
н/о н/о +17.5 +9.4 59 +17 +17 1009.7 1008.3
16 13.08 СВ 5-6
{6}
н/о н/о +17.8 +9.9 60 +17 +17 1009.3 1007.9
17 13.08 СВ 6-7
{7}
н/о н/о +17.8 +10.2 61 +17 +17 1008.8 1007.4
18 13.08 СВ 5-6
{7}
н/о н/о +17.9 +10.8 63 +18 +18 1008.5 1007.0 +13.3 +18.1
19 13.08 СВ 5-6
{6}
н/о н/о +18.0 +13.3 74 +18 +18 1008.7 1007.3
20 13.08 В 5-6
{6}
н/о н/о +18.0 +10.6 62 +18 +18 1008.6 1007.2
21 13.08 В 4-5
{6}
н/о н/о +17.9 +14.8 82 +18 +18 1008.4 1007.0
22 13.08 В 3-5
{5}
н/о н/о +17.7 +16.9 95 +18 +18 1008.3 1006.8
23 13.08 В 3-5
{6}
н/о н/о +16.9 +17 +17 1008.1 1006.7
00 14.08 С 5-6
{6}
н/о н/о +17.2 +17 +17 1007.8 1006.3
01 14.08 СВ 4-5
{6}
н/о н/о +17.0 +17 +17 1007.6 1006.2
02 14.08 ЮВ 6-7
{7}
н/о н/о +16.8 +16 +16 1007.6 1006.2
03 14.08 ЮВ 5-6
{7}
н/о н/о +16.2 +15 +15 1007.5 1006.1
04 14.08 В 3-3
{6}
н/о н/о +15.9 +16 +16 1007.5 1006.1
05 14.08 СВ 3-3
{4}
н/о н/о +15.6 +15 +15 1007.6 1006.2
06 14.08 С 5-6
{7}
н/о н/о +15.6 +15 +15 1007.6 1006.2 +15.0 +18.2
07 14.08 С 6-7
{9}
н/о н/о +15.3 +14 +14 1007.9 1006.4
08 14.08 СВ 6-7
{8}
н/о н/о +15.5 +14 +14 1007.9 1006.5
09 14.08 СВ 5-7
{7}
н/о н/о +16.0 +15 +15 1008.2 1006.8
10 14.08 СВ 8-10
{10}
н/о н/о +17.3 +16 +16 1008.1 1006.7
11 14.08 СВ 8-9
{10}
н/о н/о +17.5 +16 +16 1008.4 1007.0
12 14.08 СВ 8-9
{10}
н/о н/о +18.0 +17 +17 1008.7 1007.3
13 14.08 СВ 7-8
{9}
н/о н/о +18.1 +17 +17 1008.8 1007.4
14 14.08 В 6-7
{8}
н/о н/о +18.6 +18 +18 1008.9 1007.5
15 14.08 В 5-6
{7}
н/о н/о +17.6 +17 +17 1008.9 1007.5
16 14.08 В 4-5
{6}
н/о н/о +17.6 +17 +17 1008.6 1007.2
17 14.08 ЮВ 2-3
{4}
н/о н/о +17.6 +18 +18 1009.1 1007.7
18 14.08 Ю 3-4
{9}
н/о н/о +17.4 +17 +17 1009.5 1008.0 +14.6 +18.9
19 14.08 ЮЗ 4-5
{5}
н/о н/о +17.4 +17 +17 1009.7 1008.3
20 14.08 Ю 4-5
{6}
н/о н/о +17.3 +17 +17 1009.8 1008.3
21 14.08 Ю 6-7
{7}
н/о н/о +17.7 +17 +17 1009.6 1008.2
22 14.08 ЮЗ 4-5
{7}
н/о н/о +17.4 +17 +17 1009.6 1008.1
23 14.08 ЮЗ 3-4
{6}
н/о н/о +16.9 +17 +17 1009.8 1008.4
00 15.08 З 2-2
{7}
н/о н/о +15.9 +16 +16 1009.8 1008.3
01 15.08 З 3-4
{4}
н/о н/о +14.7 +14 +14 1009.8 1008.3
02 15.08 З 2-4
{4}
н/о н/о +14.3 +14 +14 1010.0 1008.6
03 15.08 З 3-3
{4}
н/о н/о +13.7 +13 +13 1010.1 1008.7
04 15.08 СЗ 3 н/о н/о +13.6 1010.3 1008.9
05 15.08 СЗ 1-1
{3}
н/о н/о +13.5 +14 +14 1010.5 1009.1
06 15.08 СЗ 1-2
{4}
н/о н/о +14.3 +15 +15 1010.8 1009.3 +13.2 +18.0 0.6
07 15.08 С 1-1
{2}
н/о н/о +15.1 +16 +16 1010.8 1009.4
08 15.08 ЮЗ 5-6
{6}
н/о н/о +17.0 +16 +16 1011.0 1009.6
09 15.08 ЮЗ 7-8
{8}
н/о н/о +17.9 +17 +17 1011.3 1009.9
10 15.08 ЮЗ 9-10
{10}
н/о н/о +17.9 +17 +17 1011.7 1010.3
11 15.08 ЮЗ 8-10
{11}
н/о н/о +17.8 +17 +17 1011.9 1010.5
12 15.08 ЮЗ 8-9
{11}
н/о н/о +17.6 +17 +17 1012.1 1010.7
13 15.08 ЮЗ 11-12
{12}
н/о н/о +18.3 +17 +17 1012.0 1010.6
14 15.08 ЮЗ 11-13
{13}
н/о н/о +18.6 +17 +17 1011.8 1010.4
15 15.08 ЮЗ 12-14
{14}
н/о н/о +18.7 +17 +17 1011.5 1010.0
16 15.08 ЮЗ 13-15
{15}
н/о н/о +18.4 +17 +17 1011.8 1010.4
17 15.08 ЮЗ 12-14
{15}
н/о н/о +18.4 +17 +17 1012.1 1010.7
18 15.08 ЮЗ 8-9
{15}
н/о н/о +18.4 +17 +17 1011.9 1010.5 +14.1 +18.9
19 15.08 ЮЗ 8-10
{10}
н/о н/о +18.2 +17 +17 1011.9 1010.5
20 15.08 ЮЗ 11-14
{14}
н/о н/о +17.7 +16 +16 1012.1 1010.7
21 15.08 ЮЗ 9-12
{14}
н/о н/о +18.0 +17 +17 1011.9 1010.5
22 15.08 ЮЗ 12-14
{14}
н/о н/о +18.3 +17 +17 1011.8 1010.3
23 15.08 ЮЗ 11-14
{14}
н/о н/о +18.3 +17 +17 1011.7 1010.3
00 16.08 ЮЗ 9-11
{14}
н/о н/о +18.1 +17 +17 1011.8 1010.3 0.3
01 16.08 ЮЗ 10-12
{12}
н/о н/о +18.2 +17 +17 1011.3 1009.9
02 16.08 ЮЗ 8-10
{13}
н/о н/о +18.0 +17 +17 1011.0 1009.6
03 16.08 ЮЗ 11-12
{13}
н/о н/о +17.9 +17 +17 1010.8 1009.4
04 16.08 Ю 10-12
{13}
н/о н/о +18.0 +17 +17 1010.3 1008.8
05 16.08 Ю 11-13
{14}
н/о н/о +18.0 +17 +17 1009.9 1008.5
06 16.08 Ю 11-14
{14}
н/о н/о +18.0 +17 +17 1009.5 1008.1 +17.6 +18.6 0.5
07 16.08 Ю 13-15
{15}
н/о н/о +17.7 +16 +16 1009.2 1007.8
08 16.08 Ю 14-17
{18}
н/о н/о +18.0 +16 +16 1008.7 1007.3
09 16.08 Ю 13-16
{17}
н/о н/о +17.8 +16 +16 1008.9 1007.5
10 16.08 Ю 12-14
{15}
н/о н/о +18.4 +17 +17 1008.8 1007.4
11 16.08 Ю 12-14
{14}
н/о н/о +18.2 +17 +17 1008.6 1007.2
12 16.08 Ю 11-13
{18}
н/о н/о +18.2 +17 +17 1008.8 1007.3
13 16.08 Ю 12-14
{16}
н/о н/о +18.0 +17 +17 1008.4 1007.0
14 16.08 Ю 15-18
{18}
н/о н/о +18.2 +16 +16 1007.9 1006.5
15 16.08 Ю 15-18
{20}
н/о н/о +18.2 +16 +16 1007.4 1006.0
16 16.08 ЮЗ 10-16
{19}
н/о н/о +17.8 +17 +17 1007.2 1005.8
17 16.08 ЮЗ 10-13
{18}
н/о н/о +16.9 +15 +15 1007.4 1005.9
18 16.08 ЮЗ 13-19
{20}
н/о н/о +17.3 +16 +16 1007.1 1005.7 +16.6 +18.7 0.5
19 16.08 ЮЗ 8-9
{12}
н/о н/о +16.6 +15 +15 1007.4 1006.0
20 16.08 ЮЗ 10-11
{11}
н/о н/о +16.3 +15 +15 1008.1 1006.6
21 16.08 ЮЗ 7-9
{12}
н/о н/о +15.9 +15 +15 1008.6 1007.2
22 16.08 ЮЗ 7-8
{9}
н/о н/о +15.6 +14 +14 1009.0 1007.6
23 16.08 ЮЗ 5-6
{10}
н/о н/о +16.8 +16 +16 1009.4 1007.9
00 17.08 ЮЗ 11-13
{13}
н/о н/о +17.3 +16 +16 1008.8 1007.4 0.3
01 17.08 ЮЗ 7-8
{11}
н/о н/о +16.5 +15 +15 1009.4 1008.0
02 17.08 ЮЗ 5-6
{9}
н/о н/о +16.0 +15 +15 1009.6 1008.2
03 17.08 З 5-7
{8}
н/о н/о +15.1 +14 +14 1009.8 1008.4
04 17.08 ЮЗ 5-5
{6}
н/о н/о +15.0 +14 +14 1010.2 1008.7
05 17.08 З 3-4
{6}
н/о н/о +14.7 +14 +14 1010.6 1009.2
06 17.08 ЮЗ 3-5
{11}
н/о н/о +15.0 +15 +15 1011.1 1009.6 +14.5 +17.5 0.5
07 17.08 ЮЗ 5-6
{6}
н/о н/о +15.5 +15 +15 1011.1 1009.7
08 17.08 ЮЗ 6-8
{8}
н/о н/о +16.8 +16 +16 1011.5 1010.1
09 17.08 ЮЗ 7-8
{9}
н/о н/о +16.8 +16 +16 1011.9 1010.5
10 17.08 ЮЗ 10-12
{12}
н/о н/о +17.5 +13.0 75 +16 +16 1012.0 1010.6
11 17.08 ЮЗ 10-11
{12}
н/о н/о +17.5 +16 +16 1012.0 1010.5
12 17.08 ЮЗ 13-15
{15}
н/о н/о +17.7 +16 +16 1012.1 1010.7
13 17.08 ЮЗ 14-16
{16}
н/о н/о +17.7 +16.2 91 +16 +16 1012.0 1010.6
14 17.08 ЮЗ 14-16
{18}
н/о н/о +17.7 +16 +16 1012.1 1010.7
15 17.08 ЮЗ 15-17
{18}
н/о н/о +17.7 +16 +16 1012.3 1010.8
16 17.08 ЮЗ 14-16
{17}
н/о н/о +17.3 +16 +16 1012.5 1011.1
17 17.08 ЮЗ 11-14
{17}
н/о н/о +17.7 +13.8 78 +16 +16 1012.7 1011.3
18 17.08 ЮЗ 9-11
{18}
н/о н/о +17.3 +16 +16 1013.0 1011.6 +14.3 +18.1
19 17.08 З 6-7
{28}
н/о н/о +17.1 +16 +16 1013.4 1012.0
20 17.08 ЮЗ 7-9
{9}
н/о н/о +16.3 +15 +15 1013.6 1012.2
21 17.08 ЮЗ 7-9
{10}
н/о н/о +16.2 +15 +15 1013.9 1012.5
22 17.08 ЮЗ 6-7
{10}
н/о н/о +16.2 +15 +15 1014.1 1012.6
23 17.08 ЮЗ 6-7
{8}
н/о н/о +15.6 +15 +15 1014.0 1012.6
00 18.08 ЮЗ 6-7
{28}
н/о н/о +15.8 +15 +15 1013.9 1012.5
01 18.08 ЮЗ 6-7
{8}
н/о н/о +16.2 +15 +15 1013.7 1012.2
02 18.08 ЮЗ 7-9
{9}
н/о н/о +16.8 +16 +16 1013.5 1012.0
03 18.08 ЮЗ 12-15
{16}
н/о н/о +16.7 +15 +15 1013.0 1011.5
04 18.08 ЮЗ 10 н/о н/о +16.5 1012.7 1011.3
05 18.08 ЮЗ 10-14
{16}
н/о н/о +16.6 +15 +15 1012.3 1010.9

 

Местоположение метеостанции Torungen Fyr (Норвегия): широта 58.40 долгота 8.80 высота над уровнем моря 12 м.

В архиве по умолчанию представлена погода в Torungen Fyr за последнюю неделю. Архивные данные за месяц целиком и за предыдущие месяцы, начиная с января 2011 года, Вы можете получить, выбрав интересующий диапазон дат из раскрывающегося списка и нажав кнопку "Ввод!".


*Определитесь, кто Вы:
робот инопланетянин человек

Внимание! Время в таблицах - всемирное. Для получения местного времени необходимо прибавить поправку, которая в Torungen Fyr равна 1 ч.

Смотрите также архив погоды в соседних городах и на ближайших метеорологических станциях:

Погода в Landvik (Норвегия) (18 км)
Погода в Nelaug (Норвегия) (30 км)
Погода в Hynnekleiv (Норвегия) (31 км)
Погода в Lyngor Fyr (Норвегия) (33 км)
Погода в Kjevik (Норвегия) (48 км)
Погода в Gjerstad (Норвегия) (54 км)
Погода в Oksoy Fyr (Норвегия) (57 км)
Погода в Byglandsfjord-Neset (Норвегия) (66 км)
Погода в Jomfruland (Норвегия) (68 км)
Погода в Tveitsund (Норвегия) (72 км)

Пояснения к столбцам:

Ветер - указаны скорость ветра в м/с - средняя за 10 мин, порывы в срок и между сроками (в фигурных скобках) и направление, откуда дует ветер: С - северный, СВ - северо-восточный, В - восточный, ЮВ - юго-восточный, Ю - южный, ЮЗ - юго-западный, З - западный, СЗ - северо-западный.
Видимость - горизонтальная дальность видимости в метрах или километрах. При видимости от 1 до 10 км при отсутствии осадков обычно наблюдается дымка, при ухудшении видимости до 1 км и менее - туман. В сухую погоду видимость может ухудшаться дымом, пылью или мглою.
Явления - указаны атмосферные явления, наблюдавшиеся в срок или в последний час перед сроком; фигурными скобками обозначены явления, наблюдавшиеся между сроками (за 1-3 часа до срока); квадратными скобками обозначены град или гололедные отложения с указанием их диаметра в мм.
Облачность - указаны через наклонную черту общая и нижняя облачность в баллах и высота нижней границы облаков в метрах; квадратными скобками обозначены формы облаков: Ci - перистые, Cs - перисто-слоистые, Cc - перисто-кучевые, Ac - высококучевые, As - высокослоистые, Sc - слоисто-кучевые, Ns - слоисто-дождевые, Cu - кучевые, Cb - кучево-дождевые. Подробнее классификацию облаков см. в Атласе облаков (PDF).
T - Температура воздуха - температура, измеренная на высоте 2 м над землей.
Td - Температура точки росы - температура, при понижении до которой содержащийся в воздухе водяной пар достигнет насыщения.
f - Относительная влажность воздуха - влажноcть воздуха, измеренная на высоте 2 м над землей.
Te - Эффективная температура - температура, которую ощущает одетый по сезону человек в тени. Характеристика душности погоды. При расчете учитывается влияние влажности воздуха и скорости ветра на теплоощущения человека.
Tes - Эффективная температура на солнце - температура, которую ощущает человек, с поправкой на солнечный нагрев. Характеристика знойности погоды. Зависит от высоты солнца над горизонтом, облачности и скорости ветра. Ночью, в пасмурную погоду, а также при ветре 12 м/с и более поправка равна нулю.
P - Атмосферное давление - приведенное к уровню моря атмосферное давление.
Po - Атмосферное давление - измеренное на уровне метеостанции атмосферное давление.
Tmin - Минимальная температура - минимум температуры воздуха на высоте 2 м над землей.
Tmax - Максимальная температура - максимум температуры воздуха на высоте 2 м над землей.
R - Количество осадков - Количество выпавших осадков за период времени, мм. При наведении курсора мыши на число - период времени, за который выпало указанное количество осадков.
R24 - Количество осадков - Количество выпавших осадков за 24 часа, мм.
S - Снежный покров - Высота снежного покрова, см. При наведении курсора мыши на число - состояние снежного покрова и степень покрытия местности в баллах.